This is the latest recevied weather packets stored in our database for station/object DO7CRZ-12. If no packets are shown the sender has not sent any weather packets the latest 10 day(s).
| Time | Temp. | Humidity | Pressure | Rain* | Wind** | Luminosity | Snow |
|---|---|---|---|---|---|---|---|
| 1777917443 | 23.33° C | 40% | 1011.4 hPa | 0 mm | - | 13 W/m² | - |
| 1777916841 | 24.44° C | 38% | 1011.2 hPa | 0 mm | - | 19 W/m² | - |
| 1777915635 | 26.11° C | 34% | 1011.1 hPa | 0 mm | - | 29 W/m² | - |
| 1777915047 | 26.67° C | 32% | 1011.2 hPa | 0 mm | - | 37 W/m² | - |
| 1777914445 | 27.22° C | 30% | 1011.1 hPa | 0 mm | - | 62 W/m² | - |
| 1777913842 | 27.78° C | 29% | 1011.1 hPa | 0 mm | - | 43 W/m² | - |
| 1777912636 | 27.22° C | 27% | 1011.2 hPa | 0 mm | - | 69 W/m² | - |
| 1777912049 | 27.78° C | 27% | 1011.1 hPa | 0 mm | - | 73 W/m² | - |
| 1777911446 | 27.78° C | 28% | 1011.1 hPa | 0 mm | - | 82 W/m² | - |
| 1777910842 | 27.78° C | 29% | 1011.2 hPa | 0 mm | - | 111 W/m² | - |
| 1777910240 | 27.78° C | 28% | 1011.2 hPa | 0 mm | - | 96 W/m² | - |
| 1777909637 | 27.78° C | 27% | 1011.3 hPa | 0 mm | - | 69 W/m² | - |
| 1777909049 | 27.78° C | 25% | 1011.2 hPa | 0 mm | - | 87 W/m² | - |
| 1777908446 | 28.89° C | 26% | 1011.3 hPa | 0 mm | - | 89 W/m² | - |
| 1777907844 | 28.89° C | 26% | 1011.3 hPa | 0 mm | - | 136 W/m² | - |
| 1777907241 | 27.78° C | 25% | 1011.3 hPa | 0 mm | - | 168 W/m² | - |
| 1777906638 | 26.67° C | 26% | 1011.3 hPa | 0 mm | - | 145 W/m² | - |
| 1777906035 | 26.67° C | 25% | 1011.5 hPa | 0 mm | - | 141 W/m² | - |
| 1777905447 | 28.33° C | 26% | 1011.4 hPa | 0 mm | - | 102 W/m² | - |
| 1777904845 | 28.33° C | 27% | 1011.6 hPa | 0 mm | - | 164 W/m² | - |
| 1777904241 | 27.78° C | 24% | 1011.6 hPa | 0 mm | - | 243 W/m² | - |
| 1777903639 | 27.78° C | 23% | 1011.6 hPa | 0 mm | - | 273 W/m² | - |
| 1777903036 | 28.89° C | 25% | 1011.6 hPa | 0 mm | - | 268 W/m² | - |
| 1777902448 | 28.89° C | 27% | 1011.8 hPa | 0 mm | - | 301 W/m² | - |
| 1777901845 | 27.22° C | 25% | 1011.8 hPa | 0 mm | - | 334 W/m² | - |
* Rain latest hour (hover to see other rain measurements)
** Current wind speed in m/s (hover to see current wind gust speed)